{"data":{"norad_id":66602,"intl_designator":"2025-270Q","name":"STARLINK-36050","alt_names":[],"object_type":"PAYLOAD","status":"ACTIVE","operator":null,"country":"US","launch_date":"2025-11-22","launch_site_code":"AFETR","launch_vehicle":null,"mission":null,"orbit_class":"UNKNOWN","rcs_meters":null,"size_class":null,"mass_kg":null,"dimensions":null,"purposes":["comms"],"wikipedia_slug":null,"has_3d_model":false,"image_url":null,"decayed_at":null,"tle_current":{"epoch":"2026-09-20T16:17:11.084064Z","epoch_age_seconds":71138,"freshness":"FRESH","line1":"1 66602U 25270Q   26263.67860051  .00013795  00000+0  50988-3 0  9995","line2":"2 66602  42.9964  35.2673 0000792 268.7327  91.3434 15.27580361 47424","mean_motion":15.27580361,"eccentricity":7.92e-5,"inclination_deg":42.9964,"raan_deg":35.2673,"arg_perigee_deg":268.7327,"mean_anomaly_deg":91.3434,"bstar":0.00050988,"rev_number":4742,"period_min":94.266726436397,"perigee_km":482.5046092228,"apogee_km":483.59142092919,"semimajor_km":6861.185015076,"source":"CELESTRAK","updated_at":"2026-09-21T09:00:35.978658Z"}}}